Skip Page Navigation
NASA JPL Caltech
NASA Logo - Jet Propulsion Laboratory + View the NASA Portal
+ Center for Near-Earth Object Studies
JPL Home Earth Solar System Stars & Galaxies Technology
JPL Solar System Dynamics
BODIES ORBITS EPHEMERIDES TOOLS PHYSICAL DATA DISCOVERY FAQ SITE MAP
IMPORTANT: The SSD Announcement email list is now available. Major changes are coming in the near future, including possible hostname and/or URL changes. To be notified of such changes, subscribe to this email list.

Please visit this page for more details.


JPL Small-Body Database Browser
Search: [ help ]  
7839 (1994 ND)
Classification: Amor [NEO]          SPK-ID: 2007839
Ephemeris | Orbit Diagram | Orbital Elements | Mission Design | Physical Parameters | Discovery Circumstances | Close-Approach Data ]

[ show orbit diagram ]
Orbital Elements at Epoch 2458600.5 (2019-Apr-27.0) TDB
Reference: JPL 42 (heliocentric ecliptic J2000)
 Element Value Uncertainty (1-sigma)   Units 
e .5186203557694974 9.1106e-08  
a 2.165048693450337 7.8291e-09 au
q 1.042210369794838 1.9773e-07 au
i 27.11761994007025 1.3965e-05 deg
node 102.5420601724638 1.5929e-05 deg
peri 228.2838739706843 2.361e-05 deg
M 269.3784602549144 1.9586e-05 deg
tp 2458893.406403064151
(2020-Feb-13.90640306)
6.4815e-05 TDB
period 1163.589863951885
3.19
6.3116e-06
1.728e-08
d
yr
n .3093873633251983 1.6782e-09 deg/d
Q 3.287887017105836 1.1889e-08 au
  Orbit Determination Parameters
   # obs. used (total)      185  
   data-arc span      9038 days (24.74 yr)  
   first obs. used      1994-07-03  
   last obs. used      2019-04-01  
   planetary ephem.      DE431  
   SB-pert. ephem.      SB431-N16  
   condition code      0  
   norm. resid. RMS      .54381  
   source      ORB  
   producer      Otto Matic  
   solution date      2019-Apr-02 07:02:27  

Additional Information
 Earth MOID = .135525 au 
 Jupiter MOID = 2.36242 au 
 T_jup = 3.385 
[ show covariance matrix ]

Ephemeris | Orbit Diagram | Orbital Elements | Mission Design | Physical Parameters | Discovery Circumstances | Close-Approach Data ]

Physical Parameter Table
Parameter Symbol Value Units Sigma Reference Notes
absolute magnitude H 17.8   n/a MPO431589  
diameter diameter 0.784 km 0.008 urn:nasa:pds:neowise_diameters_albedos::2.0[neos] (http://adsabs.harvard.edu/abs/2011ApJ...743..156M)  
geometric albedo albedo 0.181   0.030 urn:nasa:pds:neowise_diameters_albedos::2.0[neos] (http://adsabs.harvard.edu/abs/2011ApJ...743..156M)  

7839 (1994 ND)          Discovered 1994-Jul-03 by McNaught, R. H. at Siding Spring
Reference: DISCOVERY.DBLast Updated: 2003-08-29

[ show close-approach data ]
Ephemeris | Orbit Diagram | Orbital Elements | Mission Design | Physical Parameters | Discovery Circumstances | Close-Approach Data ]
ABOUT SSD CREDITS/AWARDS PRIVACY/COPYRIGHT GLOSSARY LINKS
FirstGov 2019-Dec-13 08:59 UT
(server date/time)  
NASA Home Page
Site Manager:   Ryan S. Park
Webmaster  Alan B. Chamberlin